This is the latest recevied weather packets stored in our database for station/object N0ZMJ-4. If no packets are shown the sender has not sent any weather packets the latest 10 day(s).
| Time | Temp. | Humidity | Pressure | Rain* | Wind** | Luminosity | Snow |
|---|---|---|---|---|---|---|---|
| 1777575002 | 10° C | 57% | 1017.2 hPa | 0 mm | - | - | - |
| 1777574703 | 10° C | 54% | 1017.2 hPa | 0 mm | - | - | - |
| 1777574403 | 10° C | 54% | 1017.2 hPa | 0 mm | - | - | - |
| 1777574103 | 10° C | 58% | 1017.3 hPa | 0 mm | - | - | - |
| 1777573803 | 10° C | 58% | 1017.5 hPa | 0 mm | - | - | - |
| 1777573503 | 9.44° C | 57% | 1017.5 hPa | 0 mm | - | - | - |
| 1777573203 | 9.44° C | 58% | 1017.6 hPa | 0 mm | - | - | - |
| 1777572903 | 9.44° C | 58% | 1017.6 hPa | 0 mm | - | - | - |
| 1777572603 | 10° C | 59% | 1017.7 hPa | 0 mm | - | - | - |
| 1777572304 | 9.44° C | 60% | 1017.8 hPa | 0 mm | - | - | - |
| 1777572003 | 9.44° C | 58% | 1017.8 hPa | 0 mm | - | - | - |
| 1777571703 | 9.44° C | 59% | 1017.9 hPa | 0 mm | - | - | - |
| 1777571403 | 9.44° C | 58% | 1017.9 hPa | 0 mm | - | - | - |
| 1777571104 | 9.44° C | 59% | 1017.9 hPa | 0 mm | - | - | - |
| 1777570803 | 9.44° C | 58% | 1017.9 hPa | 0 mm | - | - | - |
| 1777570503 | 9.44° C | 58% | 1018 hPa | 0 mm | - | - | - |
| 1777570203 | 9.44° C | 59% | 1018.1 hPa | 0 mm | - | - | - |
| 1777569903 | 9.44° C | 59% | 1018 hPa | 0 mm | - | - | - |
| 1777569603 | 9.44° C | 62% | 1018.1 hPa | 0 mm | - | - | - |
| 1777569303 | 8.89° C | 58% | 1018.2 hPa | 0 mm | - | - | - |
| 1777569003 | 8.89° C | 60% | 1018.4 hPa | 0 mm | - | - | - |
| 1777568703 | 8.89° C | 61% | 1018.4 hPa | 0 mm | - | - | - |
| 1777568403 | 8.89° C | 60% | 1018.4 hPa | 0 mm | - | - | - |
| 1777568103 | 8.89° C | 63% | 1018.4 hPa | 0 mm | - | - | - |
| 1777567803 | 8.89° C | 60% | 1018.5 hPa | 0 mm | - | - | - |
* Rain latest hour (hover to see other rain measurements)
** Current wind speed in m/s (hover to see current wind gust speed)